User: anonymous   Login
Location: Unspecified
(0.0000°N, 0.0000°E)
Time: 17:30:03
(UTC+00:00)
Language:

PCSat - Orbit

View from above orbital plane
View from above orbital plane
View from above satellite
View from above satellite

Ground track
Ground track

The orbit data is extracted from the following two-line orbital elements,

1 26931U 01043C   21266.75124726 -.00000009  00000-0  28228-4 0  9996
2 26931  67.0531  26.7475 0005430 269.0928  90.9551 14.30633208 43257
Epoch (UTC): 23 September 2021 18:01:47
Eccentricity: 0.0005430
inclination: 67.0531°
perigee height: 786 km
apogee height: 793 km
right ascension of ascending node: 26.7475°
argument of perigee: 269.0928°
revolutions per day: 14.30633208
mean anomaly at epoch: 90.9551°
orbit number at epoch: 4325

The dashed part of the orbit path shows where the satellite is in the earth's shadow,  

DLR